Regional Weather Roundup
Issued by NWS Upton, NY

Current Version | Previous Version | Graphics & Text | Print | Product List | Glossary Off
Versions: 1 2 3 4 5 6 7 8 9 10 11 12 13 14 15 16 17 18 19 20 21 22 23 24 25 26 27 28 29 30 31 32 33 34 35 36 37 38 39 40 41 42 43 44 45 46 47 48 49 50
272 ASUS41 KOKX 231808 RWROKX REGIONAL WEATHER ROUNDUP NATIONAL WEATHER SERVICE NEW YORK NY 200 PM EDT THU MAR 23 2017 NOTE: "FAIR" INDICATES FEW OR NO CLOUDS BELOW 12,000 FEET WITH NO SIGNIFICANT WEATHER AND/OR OBSTRUCTIONS TO VISIBILITY. NYZ071-072-176-178-NJZ106-104-231900- NEW YORK CITY METRO AREA CITY SKY/WX TMP DP RH WIND PRES REMARKS Central Park SUNNY 38 0 20 VRB5 30.57F WCI 34 Wall St Helipt CLEAR 41 3 20 VRB6 30.57F LaGuardia APRT SUNNY 38 1 21 N8 30.56F WCI 32 Kennedy INTL MOSUNNY 41 0 18 NW17 30.57F Breezy Point N/A 36 N/A N/A W9 N/A WCI 29 Newark/Liberty SUNNY 40 -1 18 NW13 30.56F WCI 32 Teterboro SUNNY 38 3 23 NW13G22 30.55F WCI 30 $$ NYZ177-179-078>081-231900- LONG ISLAND NEW YORK CITY SKY/WX TMP DP RH WIND PRES REMARKS Jones Beach N/A 36 N/A N/A NW12G17 N/A WCI 27 Matinecock PT NOT AVBL Farmingdale SUNNY 36 0 21 NW12G18 30.55F WCI 28 MacArthur/ISP SUNNY 37 0 21 NW16G23 30.53F WCI 28 Shirley SUNNY 37 -1 20 NW16G23 30.54F WCI 28 Westhampton SUNNY 37 -6 16 NW18G28 30.54F WCI 27 East Hampton N/A 33 -2 22 NW6G20 30.51F WCI 28 Montauk NOT AVBL $$ NYZ052-065-067-231900- HUDSON VALLEY CITY SKY/WX TMP DP RH WIND PRES REMARKS White Plains SUNNY 34 -2 21 NW12 30.53F WCI 25 Newburgh SUNNY 34 3 27 W12 30.52F WCI 25 Montgomery SUNNY 37 -2 19 NW12G18 30.50F WCI 29 Poughkeepsie SUNNY 34 0 23 CALM 30.52F Albany MOSUNNY 34 3 27 NW14G21 30.52F WCI 25 $$ NJZ001-105-106-008-010-013-015-019>022-104-231900- NEW JERSEY CITY SKY/WX TMP DP RH WIND PRES REMARKS Newark/Liberty SUNNY 40 -1 18 NW13 30.56F WCI 32 Teterboro SUNNY 38 3 23 NW13G22 30.55F WCI 30 Caldwell SUNNY 38 0 20 NW7 30.56F WCI 33 Somerville SUNNY 40 3 21 MISG 30.55F Linden N/A 39 2 21 NW12 30.57F WCI 32 Sussex SUNNY 36 1 22 SW7 30.53F WCI 30 Andover N/A 34 -2 21 SW7 30.53F WCI 28 Trenton SUNNY 39 8 27 VRB7 30.57F WCI 34 Millville SUNNY 41 6 23 VRB3 30.59F Atlantic City SUNNY 43 3 19 CALM 30.57F Wrightstown SUNNY 39 6 24 NW8 30.55F WCI 34 Toms River SUNNY 40 2 20 CALM 30.57F Belmar SUNNY 40 -1 18 NW10G20 30.57F WCI 33 $$ PAZ047>061-062-071-231900- EASTERN PENNSYLVANIA CITY SKY/WX TMP DP RH WIND PRES REMARKS Philadelphia MOSUNNY 38 6 26 SW8 30.60F WCI 32 Allentown SUNNY 39 7 26 MISG 30.56F Scranton SUNNY 31 5 33 VRB6 30.54F WCI 25 $$ CTZ002-004>006-009-010-012-RIZ004-006-007-MAZ004-011-015-231900- SOUTHERN NEW ENGLAND IN CT CITY SKY/WX TMP DP RH WIND PRES REMARKS Bradley INTL MOSUNNY 36 1 22 W18 30.48F WCI 26 Hartford SUNNY 36 0 21 W12G17 30.50F WCI 28 Danbury SUNNY 34 -3 20 NW13G20 30.53F WCI 25 Wtrbury/Oxford SUNNY 32 0 25 NW14G23 30.50F WCI 22 Bridgeport SUNNY 39 -2 17 W15G22 30.53F WCI 31 Meriden SUNNY 37 0 21 W9G24 30.51F WCI 30 New Haven SUNNY 36 -3 19 NW15G23 30.52F WCI 27 Chester N/A 36 -8 15 NW10G16 30.47F WCI 28 Groton SUNNY 38 -3 17 N17 30.49F WCI 28 Wilimantic SUNNY 36 -1 21 W9G23 30.48F WCI 29 IN RI CITY SKY/WX TMP DP RH WIND PRES REMARKS Providence MOSUNNY 36 -3 19 NW10G26 30.46F WCI 28 Block Island SUNNY 34 2 25 W16G23 30.48F WCI 24 Westerly SUNNY 36 -4 18 NW10G20 30.49F WCI 28 IN MA CITY SKY/WX TMP DP RH WIND PRES REMARKS Boston MOSUNNY 34 0 23 W13G25 30.43F WCI 25 Worcester SUNNY 30 -7 20 NW20G31 30.39F WCI 17 Westfield SUNNY 35 1 23 NW14G24 30.46F WCI 26 Provincetown SUNNY 32 9 38 NW18G25 30.43 WCI 20 Nantucket SUNNY 33 2 26 W22G31 30.43F WCI 21 $$ ANZ330-335-338-340-345-350-353-355-231900- COASTAL MARINE OBSERVATIONS STATION/POSITION TIME SKY/WX TEMP WIND PRES VSBY WAVE AIR SEA DIR/SP/G HT/PER (UTC) (F) (DEG/KT/KT) (MB) (MI) (FT/S) NY HARB ENTRANCE 1650 31 41 300/ 12/ 16 1035.8 1/ 3 20 S FIRE ISLAND 1750 31 41 290/ 12/ 16 1035.0 2/ 4 GREAT SOUTH BAY NOT AVBL 23 SSW MONTAUK P 1650 28 42 1034.6 3/ 4 15 E BARNEGAT LI 1730 43 N/A 2/ 3 HUDSON CANYON 1650 31 45 320/ 14/ 17 1035.6 5/ 6 KINGS POINT 1748 34 38 1034.7 EXECUTION ROCKS NOT AVBL CENTRAL LI SOUND 1730 33 290/ 14/ 19 N/A 1/ 3 EASTERN LI SOUND NOT AVBL ROBBINS REEF 1748 35 290/ 10/ 14 1035.1 $$ >>>>>>>>>>>>>>>>>>>>>>>>>>>> KEY <<<<<<<<<<<<<<<<<<<<<<<<<<< > < > SKY/WX - Sky Condition/Present Weather < > TMP - Temperature in Fahrenheit < > DP - Dew Point in Fahrenheit < > RH - Relative Humidity in Percent < > WIND - Direction (from) and Speed in MPH < > PRES - Mean Sea Level Pressure (inches of Hg) < > WCI - Wind Chill Index < > VSB - VISIBILITY IN MILES < > HX - HEAT INDEX < > TC - TEMPERATURE IN CELSIUS < > VRB - VARIABLE WIND DIRECTION < > < >>>>>>>>>>>>>>>>>>>>>>>>>>>> KEY <<<<<<<<<<<<<<<<<<<<<<<<<<<

USA.gov is the U.S. government's official web portal to all federal, state and local government web resources and services.